GW2897 Weather Reports


Display with metric or nautical units.
time (UTC)temp
F
wind
direction
speed
MPH
gust
MPH
rain 1hr
in
rain 24hr
in
rain mn
in
humidity
%
barometer
mb
20260905200002 100 115 1.0 2.0 0.00 0.00 0.00 53 1009.9
20260905195402 100 121 1.0 2.0 0.00 0.00 0.00 55 1010.0
20260905194502 98 62 1.0 4.0 0.00 0.00 0.00 54 1010.2
20260905193605 97 292 3.0 11.0 0.00 0.00 0.00 57 1010.1
20260905192702 97 233 4.0 12.0 0.00 0.00 0.00 56 1010.0
20260905191802 99 119 2.0 7.0 0.00 0.00 0.00 53 1010.3
20260905190902 98 94 2.0 4.0 0.00 0.00 0.00 57 1010.2
20260905190002 98 113 2.0 7.0 0.00 0.00 0.00 56 1010.4
20260905185402 98 301 2.0 7.0 0.00 0.00 0.00 55 1010.4
20260905184502 97 270 2.0 5.0 0.00 0.00 0.00 55 1010.5
20260905183602 99 115 2.0 7.0 0.00 0.00 0.00 54 1010.8
20260905182702 98 128 3.0 9.0 0.00 0.00 0.00 57 1010.8
20260905181823 98 168 3.0 9.0 0.00 0.00 0.00 55 1011.1
20260905180902 97 295 4.0 9.0 0.00 0.00 0.00 57 1011.3
20260905180002 97 149 3.0 10.0 0.00 0.00 0.00 58 1011.6
20260905175402 97 124 3.0 9.0 0.00 0.00 0.00 58 1011.6
20260905174502 96 286 4.0 12.0 0.00 0.00 0.00 59 1011.8
20260905173602 96 243 3.0 13.0 0.00 0.00 0.00 59 1011.8
20260905172702 96 281 3.0 8.0 0.00 0.00 0.00 60 1011.9
20260905171802 96 197 2.0 5.0 0.00 0.00 0.00 59 1012.1
20260905170923 95 176 3.0 7.0 0.00 0.00 0.00 61 1012.3
20260905170003 95 257 3.0 9.0 0.00 0.00 0.00 62 1012.4
20260905165402 95 271 2.0 7.0 0.00 0.00 0.00 60 1012.4
20260905164502 94 228 3.0 8.0 0.00 0.00 0.00 63 1012.7
20260905163602 94 263 2.0 7.0 0.00 0.00 0.00 63 1012.9
20260905162702 93 275 3.0 9.0 0.00 0.00 0.00 66 1013.1
20260905161803 93 265 2.0 7.0 0.00 0.00 0.00 65 1013.1
20260905160902 93 251 2.0 8.0 0.00 0.00 0.00 68 1013.2
20260905160002 92 255 3.0 8.0 0.00 0.00 0.00 69 1013.2
20260905155423 92 276 4.0 8.0 0.00 0.00 0.00 70 1013.1
20260905154502 92 217 3.0 6.0 0.00 0.00 0.00 71 1013.3
20260905153602 91 262 2.0 6.0 0.00 0.00 0.00 73 1013.3
20260905152702 90 287 3.0 8.0 0.00 0.00 0.00 74 1013.5
20260905151802 89 262 3.0 7.0 0.00 0.00 0.00 74 1013.5
20260905150903 89 275 2.0 8.0 0.00 0.00 0.00 74 1013.7
20260905150003 89 282 3.0 8.0 0.00 0.00 0.00 75 1013.8
20260905145402 88 248 3.0 8.0 0.00 0.00 0.00 76 1013.7
20260905144503 87 256 2.0 7.0 0.00 0.00 0.00 78 1013.9
20260905143624 86 244 2.0 5.0 0.00 0.00 0.00 80 1013.9
20260905142724 86 272 3.0 8.0 0.00 0.00 0.00 81 1013.9
20260905141803 86 275 2.0 7.0 0.00 0.00 0.00 82 1013.9
20260905140903 84 259 2.0 7.0 0.00 0.00 0.00 83 1014.0
20260905140003 84 266 1.0 5.0 0.00 0.00 0.00 84 1014.0
20260905135423 83 263 2.0 5.0 0.00 0.00 0.00 85 1013.9
20260905134503 82 229 2.0 6.0 0.00 0.00 0.00 86 1013.9
20260905133603 82 240 2.0 6.0 0.00 0.00 0.00 86 1014.0
20260905132702 81 242 2.0 5.0 0.00 0.00 0.00 88 1014.0
20260905131803 80 269 2.0 6.0 0.00 0.00 0.00 89 1014.0
20260905130903 80 253 1.0 5.0 0.00 0.00 0.00 90 1014.2
20260905130003 79 266 2.0 5.0 0.00 0.00 0.00 90 1014.2
20260905125403 79 281 2.0 6.0 0.00 0.00 0.00 91 1014.2
20260905124503 78 283 2.0 6.0 0.00 0.00 0.00 92 1014.1
20260905123603 78 252 1.0 4.0 0.00 0.00 0.00 92 1014.0
20260905122703 77 247 2.0 6.0 0.00 0.00 0.00 93 1014.0
20260905121824 76 263 1.0 5.0 0.00 0.00 0.00 94 1014.1
20260905120903 76 257 0.0 2.0 0.00 0.00 0.00 95 1014.0
20260905120003 76 268 1.0 5.0 0.00 0.00 0.00 95 1013.9
20260905115403 75 261 1.0 5.0 0.00 0.00 0.00 96 1013.8
20260905114503 75 274 1.0 4.0 0.00 0.00 0.00 96 1013.8
20260905113603 75 284 0.0 2.0 0.00 0.00 0.00 96 1013.8
20260905112703 75 320 0.0 1.0 0.00 0.00 0.00 96 1013.7
20260905111803 75 269 0.0 2.0 0.00 0.00 0.00 96 1013.6
20260905110903 75 300 0.0 2.0 0.00 0.00 0.00 95 1013.5
20260905110003 75 281 0.0 2.0 0.00 0.00 0.00 95 1013.3
20260905105403 75 265 0.0 2.0 0.00 0.00 0.00 95 1013.4
20260905104503 75 258 1.0 2.0 0.00 0.00 0.00 95 1013.3
20260905103603 75 273 1.0 3.0 0.00 0.00 0.00 95 1013.3
20260905102703 75 281 1.0 3.0 0.00 0.00 0.00 95 1013.1
20260905101803 75 261 0.0 2.0 0.00 0.00 0.00 95 1013.0
20260905100903 75 262 0.0 2.0 0.00 0.00 0.00 95 1013.0
20260905095959 75 254 0.0 1.0 0.00 0.00 0.00 95 1013.0
20260905095359 75 258 0.0 1.0 0.00 0.00 0.00 95 1013.0
20260905094459 75 276 0.0 1.0 0.00 0.00 0.00 95 1013.0
20260905093559 75 284 0.0 1.0 0.00 0.00 0.00 95 1013.1
20260905092659 75 262 0.0 1.0 0.00 0.00 0.00 95 1013.0
20260905091759 75 285 0.0 2.0 0.00 0.00 0.00 95 1013.1
20260905090920 76 285 0.0 1.0 0.00 0.00 0.00 95 1013.1
20260905085959 76 247 0.0 2.0 0.00 0.00 0.00 94 1013.2
20260905085420 76 248 0.0 2.0 0.00 0.00 0.00 95 1013.2
20260905084459 76 264 0.0 2.0 0.00 0.00 0.00 94 1013.1
20260905083559 76 220 0.0 1.0 0.00 0.00 0.00 94 1013.1
20260905082659 76 241 0.0 1.0 0.00 0.00 0.00 94 1013.2
20260905081800 76 278 0.0 1.0 0.00 0.00 0.00 94 1013.2
20260905080921 76 274 0.0 1.0 0.00 0.00 0.00 94 1013.2
20260905075959 76 265 0.0 1.0 0.00 0.00 0.00 94 1013.4
20260905075400 76 267 0.0 1.0 0.00 0.00 0.00 94 1013.4
20260905074500 76 278 0.0 1.0 0.00 0.00 0.00 94 1013.3
20260905073559 76 284 0.0 1.0 0.00 0.00 0.00 94 1013.3
20260905072700 76 0 0.0 0.0 0.00 0.00 0.00 94 1013.3
20260905071800 76 281 0.0 1.0 0.00 0.00 0.00 94 1013.3
20260905070859 76 0 0.0 0.0 0.00 0.00 0.00 94 1013.4
20260905070021 76 0 0.0 0.0 0.00 0.00 0.00 93 1013.4
20260905065359 76 0 0.0 0.0 0.00 0.00 0.00 93 1013.4
20260905064500 77 0 0.0 0.0 0.00 0.00 0.00 92 1013.5
20260905063559 77 0 0.0 0.0 0.00 0.00 0.00 92 1013.6
20260905062701 77 0 0.0 0.0 0.00 0.00 0.00 92 1013.5
20260905061801 77 0 0.0 0.0 0.00 0.00 0.00 91 1013.5
20260905060921 78 297 0.0 1.0 0.00 0.00 0.00 91 1013.8
20260905060000 78 295 0.0 1.0 0.00 0.00 0.00 91 1013.9
20260905055400 78 0 0.0 0.0 0.00 0.00 0.00 90 1014.0
20260905054459 78 0 0.0 0.0 0.00 0.00 0.00 90 1014.1
20260905053621 78 0 0.0 0.0 0.00 0.00 0.00 90 1014.2
20260905052721 79 221 0.0 1.0 0.00 0.00 0.00 89 1014.1
20260905051800 79 95 0.0 1.0 0.00 0.00 0.00 89 1014.2
20260905050900 79 142 0.0 1.0 0.00 0.00 0.00 88 1014.1
20260905050000 79 79 0.0 1.0 0.00 0.00 0.00 88 1014.2
20260905045400 80 81 0.0 3.0 0.00 0.00 0.00 88 1014.1
20260905044502 80 29 0.0 1.0 0.00 0.00 0.00 87 1014.2
20260905043600 80 129 0.0 2.0 0.00 0.00 0.00 87 1014.1
20260905042700 80 309 0.0 2.0 0.00 0.00 0.00 87 1014.3
20260905041800 80 144 0.0 3.0 0.00 0.00 0.00 86 1014.5
20260905040900 80 68 0.0 2.0 0.00 0.00 0.00 86 1014.4
20260905040000 80 135 0.0 1.0 0.00 0.00 0.00 86 1014.4
20260905035400 80 112 0.0 2.0 0.00 0.00 0.00 85 1014.3
20260905034500 80 126 0.0 2.0 0.00 0.00 0.00 85 1014.3
20260905033600 80 337 0.0 2.0 0.00 0.00 0.00 85 1014.4
20260905032700 80 90 0.0 2.0 0.00 0.00 0.00 84 1014.6
20260905031821 80 93 0.0 1.0 0.00 0.00 0.00 84 1014.6
20260905030900 81 140 0.0 1.0 0.00 0.00 0.00 82 1014.7
20260905030000 81 126 0.0 2.0 0.00 0.00 0.00 82 1014.8
20260905025400 81 120 0.0 1.0 0.00 0.00 0.00 82 1014.7
20260905024500 81 115 1.0 5.0 0.00 0.00 0.00 81 1014.8
20260905023601 79 104 0.0 4.0 0.00 0.00 0.00 83 1014.7
20260905022721 80 122 0.0 1.0 0.00 0.00 0.00 82 1014.5
20260905021822 80 127 0.0 1.0 0.00 0.00 0.00 83 1014.5
20260905020901 80 0 0.0 0.0 0.00 0.00 0.00 82 1014.5
20260905020001 80 0 0.0 0.0 0.00 0.00 0.00 82 1014.4
20260905015400 80 162 0.0 1.0 0.00 0.00 0.00 81 1014.4
20260905014500 80 0 0.0 0.0 0.00 0.00 0.00 81 1014.5
20260905013600 80 148 0.0 1.0 0.00 0.00 0.00 81 1014.6
20260905012721 81 141 0.0 1.0 0.00 0.00 0.00 81 1014.6
20260905011800 81 0 0.0 0.0 0.00 0.00 0.00 80 1014.5
20260905010901 81 0 0.0 0.0 0.00 0.00 0.00 80 1014.5
20260905010000 82 0 0.0 0.0 0.00 0.00 0.00 80 1014.3
20260905005401 82 0 0.0 0.0 0.00 0.00 0.00 80 1014.3
20260905004501 82 0 0.0 0.0 0.00 0.00 0.00 79 1014.2
20260905003601 83 0 0.0 0.0 0.00 0.00 0.00 78 1014.1
20260905002721 84 0 0.0 0.0 0.00 0.00 0.00 77 1013.9
20260905001801 85 0 0.0 0.0 0.00 0.00 0.00 75 1014.0
20260905000922 86 0 0.0 0.0 0.00 0.00 0.00 73 1013.9
20260905000001 87 0 0.0 0.0 0.00 0.00 0.00 72 1013.8
20260904235421 87 141 0.0 1.0 0.00 0.00 0.00 70 1013.8
20260904234500 89 141 0.0 1.0 0.00 0.00 0.00 68 1013.6
20260904233601 90 0 0.0 0.0 0.00 0.00 0.00 67 1013.5
20260904232701 92 141 0.0 1.0 0.00 0.00 0.00 64 1013.5
20260904231801 94 133 0.0 2.0 0.00 0.00 0.00 61 1013.6
20260904230901 95 115 0.0 2.0 0.00 0.00 0.00 59 1013.5
20260904230001 95 119 1.0 6.0 0.00 0.00 0.00 58 1013.6
20260904225401 95 120 1.0 6.0 0.00 0.00 0.00 59 1013.5
20260904224500 95 125 1.0 5.0 0.00 0.00 0.00 57 1013.5
20260904223601 96 126 2.0 6.0 0.00 0.00 0.00 58 1013.4
20260904222701 96 129 2.0 6.0 0.00 0.00 0.00 57 1013.4
20260904221801 96 134 2.0 6.0 0.00 0.00 0.00 56 1013.5
20260904220901 97 121 1.0 6.0 0.00 0.00 0.00 56 1013.4
20260904220001 96 144 2.0 6.0 0.00 0.00 0.00 56 1013.5
20260904215401 97 123 2.0 7.0 0.00 0.00 0.00 56 1013.4
20260904214501 97 123 2.0 7.0 0.00 0.00 0.00 56 1013.4
20260904213601 97 123 2.0 5.0 0.00 0.00 0.00 56 1013.3
20260904212701 97 178 2.0 6.0 0.00 0.00 0.00 57 1013.4
20260904211801 97 112 1.0 3.0 0.00 0.00 0.00 57 1013.6
20260904210901 96 121 1.0 6.0 0.00 0.00 0.00 57 1013.5
20260904210022 98 130 2.0 8.0 0.00 0.00 0.00 55 1013.5
20260904205401 98 156 1.0 4.0 0.00 0.00 0.00 55 1013.6
20260904204501 96 140 1.0 7.0 0.00 0.00 0.00 56 1013.7
20260904203622 98 67 1.0 4.0 0.00 0.00 0.00 55 1013.8
20260904202701 98 121 3.0 8.0 0.00 0.00 0.00 57 1013.9
20260904201802 98 131 2.0 6.0 0.00 0.00 0.00 54 1013.9
20260904200901 97 96 2.0 6.0 0.00 0.00 0.00 54 1014.2